N6WDO Weather Reports


Display with metric or nautical units.
time (UTC)temp
F
wind
direction
speed
MPH
gust
MPH
rain 1hr
in
rain 24hr
in
rain mn
in
humidity
%
barometer
mb
20260509024312 73 179 0.0 0.0 0.00 0.00 0.00 43 1016.3
20260509023810 74 188 0.0 0.0 0.00 0.00 0.00 42 1016.5
20260509023307 74 192 0.0 1.0 0.00 0.00 0.00 42 1016.1
20260509022803 75 200 0.0 1.0 0.00 0.00 0.00 41 1016.2
20260509022301 75 174 0.0 0.0 0.00 0.00 0.00 40 1016.3
20260509021757 76 180 0.0 0.0 0.00 0.00 0.00 39 1016.0
20260509021255 76 211 1.0 2.0 0.00 0.00 0.00 39 1016.1
20260509020752 76 184 0.0 1.0 0.00 0.00 0.00 39 1016.2
20260509020250 77 186 0.0 0.0 0.00 0.00 0.00 40 1016.0
20260509015747 77 201 0.0 1.0 0.00 0.00 0.00 40 1016.1
20260509015245 77 213 1.0 1.0 0.00 0.00 0.00 39 1016.0
20260509014741 78 195 0.0 1.0 0.00 0.00 0.00 40 1016.1
20260509014239 78 190 0.0 0.0 0.00 0.00 0.00 39 1016.0
20260509013735 78 211 2.0 2.0 0.00 0.00 0.00 39 1016.1
20260509013231 79 179 2.0 3.0 0.00 0.00 0.00 38 1016.2
20260509012728 79 185 0.0 1.0 0.00 0.00 0.00 39 1016.1
20260509012224 79 187 0.0 0.0 0.00 0.00 0.00 37 1016.2
20260509011722 80 178 0.0 0.0 0.00 0.00 0.00 38 1016.0
20260509011220 80 184 1.0 1.0 0.00 0.00 0.00 37 1016.1
20260509010717 80 242 1.0 1.0 0.00 0.00 0.00 37 1016.2
20260509010213 80 214 0.0 1.0 0.00 0.00 0.00 37 1016.1
20260509005711 80 263 0.0 0.0 0.00 0.00 0.00 36 1016.1
20260509005208 81 194 0.0 0.0 0.00 0.00 0.00 35 1016.3
20260509004702 81 244 1.0 2.0 0.00 0.00 0.00 35 1016.5
20260509004200 82 276 0.0 1.0 0.00 0.00 0.00 33 1016.1
20260509003658 82 256 1.0 1.0 0.00 0.00 0.00 34 1016.2
20260509003156 83 251 0.0 1.0 0.00 0.00 0.00 34 1016.3
20260509002653 83 251 0.0 1.0 0.00 0.00 0.00 34 1016.6
20260509002150 82 187 0.0 0.0 0.00 0.00 0.00 34 1016.2
20260509001648 82 198 2.0 2.0 0.00 0.00 0.00 33 1016.5
20260509001143 83 205 0.0 1.0 0.00 0.00 0.00 33 1016.6
20260509000641 84 200 1.0 1.0 0.00 0.00 0.00 32 1016.7
20260509000138 85 355 1.0 2.0 0.00 0.00 0.00 32 1016.7
20260508235636 85 207 0.0 0.0 0.00 0.00 0.00 32 1017.0
20260508235132 84 219 0.0 1.0 0.00 0.00 0.00 34 1016.8
20260508234629 83 199 0.0 0.0 0.00 0.00 0.00 34 1016.8
20260508234125 83 231 1.0 2.0 0.00 0.00 0.00 34 1016.8
20260508233625 83 229 0.0 1.0 0.00 0.00 0.00 35 1016.9
20260508233122 83 300 1.0 1.0 0.00 0.00 0.00 34 1016.8
20260508232619 84 277 2.0 2.0 0.00 0.00 0.00 35 1016.9
20260508232116 84 328 3.0 6.0 0.00 0.00 0.00 33 1017.0
20260508231614 83 232 0.0 1.0 0.00 0.00 0.00 36 1017.0
20260508231110 84 278 2.0 3.0 0.00 0.00 0.00 35 1017.3
20260508230607 84 194 0.0 1.0 0.00 0.00 0.00 35 1017.1
20260508230103 84 227 1.0 2.0 0.00 0.00 0.00 39 1017.2
20260508225601 84 341 1.0 1.0 0.00 0.00 0.00 37 1017.2
20260508225057 85 322 0.0 1.0 0.00 0.00 0.00 38 1017.3
20260508224555 84 194 3.0 4.0 0.00 0.00 0.00 37 1017.2
20260508224052 85 217 0.0 1.0 0.00 0.00 0.00 38 1017.3
20260508223550 85 266 2.0 3.0 0.00 0.00 0.00 36 1017.6
20260508223047 86 205 0.0 0.0 0.00 0.00 0.00 38 1017.5
20260508222544 85 345 0.0 0.0 0.00 0.00 0.00 38 1017.3
20260508222041 85 208 0.0 1.0 0.00 0.00 0.00 37 1017.5
20260508221538 85 233 1.0 2.0 0.00 0.00 0.00 39 1017.6
20260508221033 84 209 0.0 0.0 0.00 0.00 0.00 40 1017.6
20260508220531 85 231 2.0 3.0 0.00 0.00 0.00 40 1017.9
20260508220027 85 311 2.0 2.0 0.00 0.00 0.00 39 1017.7
20260508215524 85 334 1.0 1.0 0.00 0.00 0.00 40 1017.9
20260508215020 86 268 0.0 0.0 0.00 0.00 0.00 40 1017.8
20260508214518 85 332 1.0 1.0 0.00 0.00 0.00 41 1018.0
20260508214014 85 249 1.0 2.0 0.00 0.00 0.00 43 1018.0
20260508213512 84 191 0.0 0.0 0.00 0.00 0.00 44 1018.3
20260508213007 85 200 0.0 1.0 0.00 0.00 0.00 45 1018.0
20260508212504 84 198 0.0 1.0 0.00 0.00 0.00 43 1018.2
20260508212000 85 198 1.0 1.0 0.00 0.00 0.00 44 1018.0
20260508211455 84 311 1.0 1.0 0.00 0.00 0.00 44 1018.3
20260508210952 84 166 1.0 2.0 0.00 0.00 0.00 44 1018.4
20260508210449 84 220 0.0 1.0 0.00 0.00 0.00 44 1018.2
20260508205945 84 183 0.0 0.0 0.00 0.00 0.00 45 1018.3
20260508205443 84 218 0.0 1.0 0.00 0.00 0.00 42 1018.2
20260508204939 83 220 0.0 0.0 0.00 0.00 0.00 43 1018.4
20260508204437 83 201 0.0 0.0 0.00 0.00 0.00 44 1018.3
20260508203931 83 252 0.0 1.0 0.00 0.00 0.00 45 1018.4
20260508203428 84 327 2.0 3.0 0.00 0.00 0.00 44 1018.5
20260508202924 84 224 0.0 1.0 0.00 0.00 0.00 44 1018.2
20260508202422 83 217 1.0 1.0 0.00 0.00 0.00 45 1018.6
20260508201918 84 217 0.0 0.0 0.00 0.00 0.00 46 1018.7
20260508201415 84 274 1.0 1.0 0.00 0.00 0.00 44 1018.6
20260508200911 84 200 0.0 0.0 0.00 0.00 0.00 45 1018.5
20260508200408 84 344 1.0 2.0 0.00 0.00 0.00 47 1018.8
20260508195858 84 191 0.0 0.0 0.00 0.00 0.00 47 1019.0
20260508195355 83 185 0.0 1.0 0.00 0.00 0.00 48 1018.6
20260508194851 82 305 0.0 1.0 0.00 0.00 0.00 47 1018.7
20260508194349 81 325 2.0 2.0 0.00 0.00 0.00 50 1018.8
20260508193846 82 28 3.0 4.0 0.00 0.00 0.00 49 1018.8
20260508193342 83 203 1.0 2.0 0.00 0.00 0.00 49 1019.0
20260508192838 82 201 0.0 0.0 0.00 0.00 0.00 48 1019.0
20260508192336 82 191 0.0 0.0 0.00 0.00 0.00 50 1018.9
20260508191833 81 200 0.0 0.0 0.00 0.00 0.00 51 1019.0
20260508191330 82 226 1.0 1.0 0.00 0.00 0.00 50 1019.1
20260508190827 82 181 0.0 0.0 0.00 0.00 0.00 50 1019.3
20260508190323 80 242 1.0 1.0 0.00 0.00 0.00 53 1019.1
20260508185820 81 247 1.0 1.0 0.00 0.00 0.00 52 1019.3
20260508185318 81 144 0.0 0.0 0.00 0.00 0.00 53 1019.0
20260508184815 80 314 1.0 1.0 0.00 0.00 0.00 53 1019.4
20260508184312 81 330 2.0 2.0 0.00 0.00 0.00 50 1019.4
20260508183808 80 182 1.0 1.0 0.00 0.00 0.00 54 1019.1
20260508183305 80 52 2.0 3.0 0.00 0.00 0.00 53 1019.1
20260508182801 80 134 1.0 1.0 0.00 0.00 0.00 53 1019.3
20260508182258 80 217 1.0 2.0 0.00 0.00 0.00 53 1019.4
20260508181753 79 121 0.0 0.0 0.00 0.00 0.00 56 1019.5
20260508181250 79 44 1.0 2.0 0.00 0.00 0.00 54 1019.5
20260508180748 79 28 3.0 4.0 0.00 0.00 0.00 53 1019.3
20260508180244 79 48 2.0 2.0 0.00 0.00 0.00 53 1019.5
20260508175741 78 3 1.0 2.0 0.00 0.00 0.00 55 1019.5
20260508175237 78 41 3.0 3.0 0.00 0.00 0.00 55 1019.4
20260508174735 78 328 2.0 3.0 0.00 0.00 0.00 55 1019.5
20260508174233 78 351 1.0 1.0 0.00 0.00 0.00 53 1019.3
20260508173729 79 291 2.0 3.0 0.00 0.00 0.00 51 1019.3
20260508173225 78 76 1.0 1.0 0.00 0.00 0.00 53 1019.3
20260508172722 79 338 1.0 2.0 0.00 0.00 0.00 52 1019.5
20260508172219 78 335 1.0 2.0 0.00 0.00 0.00 54 1019.5
20260508171715 78 48 1.0 1.0 0.00 0.00 0.00 54 1019.4
20260508171211 78 2 1.0 1.0 0.00 0.00 0.00 52 1019.4
20260508170709 78 154 0.0 1.0 0.00 0.00 0.00 55 1019.4
20260508170206 78 48 2.0 2.0 0.00 0.00 0.00 53 1019.5
20260508165703 78 327 0.0 0.0 0.00 0.00 0.00 53 1019.5
20260508165200 77 92 1.0 1.0 0.00 0.00 0.00 46 1019.3
20260508164656 77 168 2.0 2.0 0.00 0.00 0.00 42 1019.5
20260508164153 76 162 3.0 3.0 0.00 0.00 0.00 44 1019.6
20260508163651 76 194 5.0 7.0 0.00 0.00 0.00 42 1019.4
20260508163148 76 165 4.0 4.0 0.00 0.00 0.00 48 1019.5
20260508162643 77 197 2.0 3.0 0.00 0.00 0.00 50 1019.4
20260508162141 77 153 1.0 2.0 0.00 0.00 0.00 56 1019.6
20260508161638 77 160 0.0 0.0 0.00 0.00 0.00 56 1019.3
20260508161135 76 192 0.0 1.0 0.00 0.00 0.00 57 1019.6
20260508160633 76 42 2.0 2.0 0.00 0.00 0.00 56 1019.4
20260508160130 76 128 1.0 1.0 0.00 0.00 0.00 56 1019.5
20260508155622 75 339 1.0 1.0 0.00 0.00 0.00 57 1019.6
20260508155119 75 39 1.0 1.0 0.00 0.00 0.00 59 1019.5
20260508154616 75 134 0.0 0.0 0.00 0.00 0.00 60 1019.4
20260508154113 75 149 0.0 0.0 0.00 0.00 0.00 62 1019.6
20260508153610 75 31 0.0 1.0 0.00 0.00 0.00 63 1019.6
20260508153106 74 156 0.0 0.0 0.00 0.00 0.00 62 1019.7
20260508152603 75 139 0.0 0.0 0.00 0.00 0.00 63 1019.4
20260508152058 73 152 0.0 0.0 0.00 0.00 0.00 66 1019.6
20260508151555 71 86 0.0 1.0 0.00 0.00 0.00 70 1019.5
20260508151053 71 140 0.0 0.0 0.00 0.00 0.00 72 1019.5
20260508150549 71 119 0.0 1.0 0.00 0.00 0.00 74 1019.4
20260508150045 70 144 0.0 0.0 0.00 0.00 0.00 75 1019.3
20260508145542 69 148 0.0 1.0 0.00 0.00 0.00 77 1019.4
20260508145038 70 142 0.0 0.0 0.00 0.00 0.00 77 1019.5
20260508144536 69 150 0.0 0.0 0.00 0.00 0.00 76 1019.4
20260508144033 67 143 0.0 0.0 0.00 0.00 0.00 80 1019.4
20260508143531 68 131 0.0 0.0 0.00 0.00 0.00 80 1019.3
20260508143026 69 145 0.0 0.0 0.00 0.00 0.00 76 1019.5
20260508142519 68 151 0.0 0.0 0.00 0.00 0.00 78 1019.3
20260508142015 67 161 0.0 0.0 0.00 0.00 0.00 79 1019.2
20260508141511 65 161 0.0 0.0 0.00 0.00 0.00 81 1019.3
20260508141009 63 161 0.0 0.0 0.00 0.00 0.00 84 1019.3
20260508140506 61 169 0.0 0.0 0.00 0.00 0.00 88 1019.1
20260508140002 60 166 0.0 0.0 0.00 0.00 0.00 93 1019.4
20260508135458 59 169 0.0 0.0 0.00 0.00 0.00 94 1019.2
20260508134955 59 173 0.0 0.0 0.00 0.00 0.00 93 1019.1
20260508134451 59 179 0.0 0.0 0.00 0.00 0.00 93 1019.0
20260508133948 58 194 0.0 1.0 0.00 0.00 0.00 94 1019.0
20260508133446 57 183 0.0 0.0 0.00 0.00 0.00 94 1019.2
20260508132942 56 188 0.0 0.0 0.00 0.00 0.00 95 1019.1
20260508132441 56 190 0.0 0.0 0.00 0.00 0.00 94 1019.2
20260508131937 56 183 0.0 0.0 0.00 0.00 0.00 94 1019.2
20260508131432 56 184 0.0 0.0 0.00 0.00 0.00 94 1019.1
20260508130929 56 184 0.0 0.0 0.00 0.00 0.00 94 1018.9
20260508130426 56 196 0.0 1.0 0.00 0.00 0.00 94 1018.7
20260508125922 56 217 0.0 0.0 0.00 0.00 0.00 94 1018.8
20260508125418 56 184 0.0 0.0 0.00 0.00 0.00 93 1018.9
20260508124916 56 203 0.0 0.0 0.00 0.00 0.00 93 1019.0
20260508124414 57 215 0.0 0.0 0.00 0.00 0.00 93 1018.8
20260508123911 56 216 0.0 0.0 0.00 0.00 0.00 94 1018.7
20260508123410 56 199 0.0 0.0 0.00 0.00 0.00 95 1018.6
20260508122906 56 189 0.0 0.0 0.00 0.00 0.00 95 1018.6
20260508122403 56 195 0.0 0.0 0.00 0.00 0.00 94 1018.7
20260508121900 56 201 0.0 0.0 0.00 0.00 0.00 94 1018.6
20260508121358 56 196 0.0 0.0 0.00 0.00 0.00 95 1018.7
20260508120855 56 189 0.0 0.0 0.00 0.00 0.00 95 1018.9
20260508120353 56 202 0.0 0.0 0.00 0.00 0.00 95 1018.8
20260508115850 56 184 0.0 0.0 0.00 0.00 0.00 95 1018.7
20260508115348 57 189 0.0 0.0 0.00 0.00 0.00 95 1018.7
20260508114844 57 207 0.0 0.0 0.00 0.00 0.00 96 1018.8
20260508114341 57 184 0.0 0.0 0.00 0.00 0.00 96 1018.5
20260508113837 57 189 0.0 0.0 0.00 0.00 0.00 96 1018.5
20260508113336 57 189 0.0 0.0 0.00 0.00 0.00 95 1018.5
20260508112831 58 195 0.0 0.0 0.00 0.00 0.00 96 1018.4
20260508112323 57 181 0.0 0.0 0.00 0.00 0.00 96 1018.7
20260508111820 57 168 0.0 0.0 0.00 0.00 0.00 95 1018.4
20260508111317 58 166 0.0 0.0 0.00 0.00 0.00 95 1018.6
20260508110814 58 201 0.0 0.0 0.00 0.00 0.00 95 1018.4
20260508110312 58 201 0.0 0.0 0.00 0.00 0.00 95 1018.4
20260508105812 57 188 0.0 0.0 0.00 0.00 0.00 95 1018.5
20260508105309 58 196 0.0 0.0 0.00 0.00 0.00 95 1018.5
20260508104805 58 201 0.0 0.0 0.00 0.00 0.00 95 1018.5
20260508104302 58 213 0.0 0.0 0.00 0.00 0.00 95 1018.4
20260508103759 58 201 0.0 0.0 0.00 0.00 0.00 95 1018.6
20260508103256 58 190 0.0 0.0 0.00 0.00 0.00 95 1018.4
20260508102754 58 179 0.0 0.0 0.00 0.00 0.00 95 1018.3
20260508102252 58 188 0.0 0.0 0.00 0.00 0.00 94 1018.4
20260508101749 58 188 0.0 0.0 0.00 0.00 0.00 94 1018.5
20260508101246 58 185 0.0 0.0 0.00 0.00 0.00 95 1018.3
20260508100744 58 193 0.0 0.0 0.00 0.00 0.00 94 1018.2
20260508100242 58 188 0.0 0.0 0.00 0.00 0.00 94 1018.3
20260508095737 58 188 0.0 0.0 0.00 0.00 0.00 94 1018.4
20260508095235 58 194 0.0 0.0 0.00 0.00 0.00 94 1018.2
20260508094732 59 170 0.0 0.0 0.00 0.00 0.00 94 1018.5
20260508094229 59 170 0.0 0.0 0.00 0.00 0.00 94 1018.5
20260508093726 58 187 0.0 0.0 0.00 0.00 0.00 94 1018.3
20260508093224 58 188 0.0 0.0 0.00 0.00 0.00 93 1018.4
20260508092720 59 192 0.0 0.0 0.00 0.00 0.00 93 1018.4
20260508092219 59 189 0.0 0.0 0.00 0.00 0.00 93 1018.3
20260508091716 59 181 0.0 0.0 0.00 0.00 0.00 93 1018.5
20260508091213 59 187 0.0 0.0 0.00 0.00 0.00 93 1018.6
20260508090711 59 201 0.0 0.0 0.00 0.00 0.00 92 1018.4
20260508090208 59 203 0.0 0.0 0.00 0.00 0.00 92 1018.4
20260508085703 59 209 0.0 0.0 0.00 0.00 0.00 92 1018.5
20260508085201 59 187 0.0 0.0 0.00 0.00 0.00 92 1018.6
20260508084651 59 192 0.0 0.0 0.00 0.00 0.00 93 1018.4
20260508084149 59 191 0.0 0.0 0.00 0.00 0.00 93 1018.5
20260508083646 59 205 0.0 0.0 0.00 0.00 0.00 92 1018.5
20260508083143 60 187 0.0 0.0 0.00 0.00 0.00 91 1018.7
20260508082633 60 193 0.0 0.0 0.00 0.00 0.00 91 1018.6
20260508082130 60 189 0.0 0.0 0.00 0.00 0.00 92 1018.7
20260508081628 60 180 0.0 0.0 0.00 0.00 0.00 92 1018.8
20260508081124 60 188 0.0 0.0 0.00 0.00 0.00 92 1018.6
20260508080622 59 205 0.0 0.0 0.00 0.00 0.00 92 1018.8
20260508080120 60 217 0.0 0.0 0.00 0.00 0.00 93 1018.8
20260508075615 59 217 0.0 0.0 0.00 0.00 0.00 92 1018.8
20260508075113 60 187 0.0 0.0 0.00 0.00 0.00 92 1018.7
20260508074611 60 187 0.0 0.0 0.00 0.00 0.00 92 1018.7
20260508074107 60 207 0.0 0.0 0.00 0.00 0.00 92 1018.8
20260508073605 60 185 0.0 0.0 0.00 0.00 0.00 92 1018.9
20260508073102 60 187 0.0 0.0 0.00 0.00 0.00 92 1018.7
20260508072557 60 187 0.0 0.0 0.00 0.00 0.00 91 1018.8
20260508072055 60 188 0.0 0.0 0.00 0.00 0.00 90 1018.8
20260508071553 61 188 0.0 0.0 0.00 0.00 0.00 90 1018.5
20260508071051 61 197 0.0 1.0 0.00 0.00 0.00 88 1018.7
20260508070548 62 227 1.0 2.0 0.00 0.00 0.00 88 1018.8
20260508070046 62 213 0.0 1.0 0.00 0.00 0.00 88 1018.7
20260508065543 62 189 0.0 1.0 0.00 0.00 0.00 88 1018.6
20260508065041 61 187 0.0 0.0 0.00 0.00 0.00 89 1018.6
20260508064539 61 204 1.0 1.0 0.00 0.00 0.00 89 1018.6
20260508064036 61 167 0.0 0.0 0.00 0.00 0.00 89 1018.8
20260508063533 61 158 0.0 1.0 0.00 0.00 0.00 89 1018.6
20260508063032 61 210 0.0 1.0 0.00 0.00 0.00 89 1018.7
20260508062529 61 164 0.0 0.0 0.00 0.00 0.00 89 1018.7
20260508062025 61 183 0.0 0.0 0.00 0.00 0.00 89 1018.6
20260508061523 61 184 0.0 0.0 0.00 0.00 0.00 88 1018.5
20260508061020 62 173 0.0 0.0 0.00 0.00 0.00 87 1018.5
20260508060517 62 173 0.0 0.0 0.00 0.00 0.00 87 1018.5
20260508060014 62 183 0.0 0.0 0.00 0.00 0.00 87 1018.4
20260508055510 62 183 0.0 0.0 0.00 0.00 0.00 87 1018.7
20260508055007 62 183 0.0 0.0 0.00 0.00 0.00 86 1018.7
20260508054503 62 173 0.0 0.0 0.00 0.00 0.00 86 1018.4
20260508054000 63 188 0.0 0.0 0.00 0.00 0.00 86 1018.6
20260508053457 63 184 0.0 0.0 0.00 0.00 0.00 85 1018.6
20260508052955 63 186 0.0 0.0 0.00 0.00 0.00 84 1018.7
20260508052452 63 182 0.0 0.0 0.00 0.00 0.00 84 1018.7
20260508051949 64 167 0.0 0.0 0.00 0.00 0.00 84 1018.6
20260508051444 64 161 0.0 1.0 0.00 0.00 0.00 83 1018.6
20260508050940 64 210 1.0 1.0 0.00 0.00 0.00 83 1018.7
20260508050437 64 208 1.0 1.0 0.00 0.00 0.00 83 1018.8
20260508045934 64 184 0.0 0.0 0.00 0.00 0.00 84 1018.8
20260508045431 64 202 0.0 0.0 0.00 0.00 0.00 83 1018.9
20260508044928 63 162 1.0 1.0 0.00 0.00 0.00 85 1018.6
20260508044426 63 187 0.0 0.0 0.00 0.00 0.00 84 1018.8
20260508043920 63 188 0.0 0.0 0.00 0.00 0.00 84 1018.7
20260508043418 63 156 0.0 1.0 0.00 0.00 0.00 83 1018.7
20260508042914 63 189 0.0 0.0 0.00 0.00 0.00 84 1018.5
20260508042413 64 208 0.0 0.0 0.00 0.00 0.00 83 1018.5
20260508041909 65 188 0.0 0.0 0.00 0.00 0.00 81 1018.5
20260508041405 66 192 0.0 0.0 0.00 0.00 0.00 78 1018.3
20260508040902 66 183 1.0 1.0 0.00 0.00 0.00 77 1018.4
20260508040359 66 188 0.0 0.0 0.00 0.00 0.00 77 1018.5
20260508035857 67 198 0.0 1.0 0.00 0.00 0.00 75 1018.0
20260508035354 67 187 0.0 0.0 0.00 0.00 0.00 75 1018.3
20260508034851 67 157 0.0 1.0 0.00 0.00 0.00 75 1018.0
20260508034348 68 160 0.0 0.0 0.00 0.00 0.00 72 1018.0
20260508033845 70 166 1.0 1.0 0.00 0.00 0.00 69 1017.8
20260508033343 70 152 0.0 0.0 0.00 0.00 0.00 67 1017.8
20260508032840 70 185 0.0 0.0 0.00 0.00 0.00 68 1017.7
20260508032337 70 180 0.0 0.0 0.00 0.00 0.00 67 1017.9
20260508031834 70 222 0.0 0.0 0.00 0.00 0.00 66 1017.5
20260508031331 71 185 0.0 0.0 0.00 0.00 0.00 66 1017.6
20260508030826 72 189 0.0 0.0 0.00 0.00 0.00 65 1017.7
20260508030319 73 188 0.0 0.0 0.00 0.00 0.00 63 1017.7
20260508025815 73 182 0.0 0.0 0.00 0.00 0.00 62 1017.6
20260508025312 73 192 0.0 0.0 0.00 0.00 0.00 61 1017.6
20260508024809 74 187 0.0 0.0 0.00 0.00 0.00 61 1017.7